EDT,Max TemperatureF,Mean TemperatureF,Min TemperatureF,Max Dew PointF,MeanDew PointF,Min DewpointF,Max Humidity, Mean Humidity, Min Humidity, Max Sea Level PressureIn, Mean Sea Level PressureIn, Min Sea Level PressureIn, Max VisibilityMiles, Mean VisibilityMiles, Min VisibilityMiles, Max Wind SpeedMPH, Mean Wind SpeedMPH, Max Gust SpeedMPH,PrecipitationIn, CloudCover, Events, WindDirDegrees
2012-10-1,77,72,66,77,75,75,100,99,94,29.76,29.67,29.62,10,8,0,16,7,24,0.00,7,,156
2012-10-2,71,63,55,68,65,63,100,93,73,30.02,29.83,29.67,10,9,0,9,4,,0.00,6,,217
2012-10-3,71,61,51,66,62,59,100,81,68,30.21,30.12,30.02,10,6,0,5,0,,0.00,4,,327
2012-10-4,80,66,51,66,58,52,100,58,37,30.29,30.23,30.18,10,8,0,8,1,,0.00,0,,354
2012-10-5,82,66,51,66,57,52,100,53,37,30.22,30.13,30.02,10,8,0,7,1,,0.00,0,,88
2012-10-6,82,68,53,73,64,59,100,70,45,30.06,30.00,29.92,10,8,0,8,2,,0.00,2,,299
2012-10-7,71,62,53,59,54,48,100,80,56,30.10,30.05,30.00,10,10,10,13,4,18,0.00,0,,338
2012-10-8,66,57,48,57,52,46,100,89,64,30.14,30.09,30.05,10,10,9,7,2,,0.00,3,,7
2012-10-9,71,60,48,63,54,52,100,83,50,30.15,30.10,30.04,10,9,0,7,2,,0.00,4,,71
2012-10-10,75,60,46,63,56,55,100,61,50,30.18,30.13,30.09,10,8,0,15,2,23,0.00,3,,310
2012-10-11,77,62,46,64,55,52,100,62,41,30.29,30.23,30.18,10,9,2,6,1,,0.00,0,,318
2012-10-12,84,68,51,66,61,55,100,69,37,30.29,30.24,30.18,10,10,2,13,2,17,0.00,1,,343
2012-10-13,78,66,55,66,59,54,100,69,44,30.33,30.26,30.21,10,10,7,12,3,17,0.00,1,,116
2012-10-14,78,68,57,70,65,61,100,81,57,30.24,30.14,30.01,10,10,10,10,3,,0.00,1,,159
2012-10-15,78,64,51,72,54,45,100,65,38,30.01,29.95,29.90,10,9,1,16,5,18,0.00,2,,299
2012-10-16,71,56,41,57,46,36,100,55,28,30.01,29.95,29.88,10,10,7,9,2,,0.00,0,,359
2012-10-17,77,60,44,61,50,43,100,60,31,29.96,29.89,29.81,10,10,3,13,2,,0.00,0,,172
2012-10-18,73,62,51,70,62,54,100,90,65,29.87,29.82,29.79,10,9,0,13,4,,0.00,3,,196
2012-10-19,73,56,39,54,37,28,100,45,19,29.87,29.84,29.78,10,9,0,17,3,26,0.00,0,,258
2012-10-20,71,54,37,54,45,41,100,54,33,30.00,29.93,29.86,10,10,3,12,2,16,0.00,0,,290
2012-10-21,75,56,37,54,47,41,100,54,31,30.16,30.10,30.00,10,10,0,10,1,,0.00,0,,25
2012-10-22,78,60,41,57,50,45,100,53,30,30.23,30.17,30.11,10,10,1,5,0,,0.00,0,,88
2012-10-23,78,60,42,57,47,39,100,50,24,30.20,30.14,30.09,10,10,2,7,1,,0.00,0,,141
2012-10-24,80,62,44,61,56,52,100,61,37,30.19,30.12,30.06,10,10,7,8,1,,0.00,0,,102
2012-10-25,80,64,48,64,60,55,100,63,42,30.10,30.05,30.00,10,10,5,10,2,17,0.00,1,,112
2012-10-26,80,66,53,68,59,54,100,63,42,30.05,29.98,29.91,10,10,0,8,2,,0.00,1,,75
2012-10-27,66,60,53,61,54,50,100,84,68,29.91,29.86,29.80,10,10,1,13,4,21,0.00,3,,332
2012-10-28,53,50,46,50,45,36,94,79,58,29.92,29.85,29.81,10,10,10,17,9,29,0.00,6,,331
2012-10-29,55,47,39,37,30,23,81,54,29,29.95,29.90,29.84,10,10,10,21,11,30,0.00,0,,323
2012-10-30,57,47,37,30,25,18,70,45,23,29.88,29.81,29.77,10,10,10,22,14,31,0.00,0,,296
2012-10-31,66,49,32,41,34,28,100,58,28,29.95,29.90,29.86,10,10,10,17,7,24,0.00,0,,285